When you browse on this site, cookies collect data to enhance your experience and personalize the content and advertising you see.
Visit our Privacy Policy to learn more. By continuing to use the site, you agree to this use of cookies and data.
  • In Deutschland
  • Länderverzeichnis
  • Für 7 Tage
  • Wassertemperatur
  • Wetterkarte
  • Widgets
  • user-avatar
    Anmelden

    Stündliche Wetter Newport

    Heute, 23 September, Montag

    Zeit Temperatur Niederschläge Wind Luftdruck Luftfeuchtigkeit
    00:00 +13°C° 0 mm 8 m/S 752 mmHg 91%
    01:00 +13°C° 0 mm 8 m/S 753 mmHg 90%
    02:00 +13°C° 0 mm 8 m/S 753 mmHg 89%
    03:00 +12°C° 0 mm 8 m/S 753 mmHg 87%
    04:00 +12°C° 0 mm 7 m/S 753 mmHg 88%
    05:00 +13°C° 0 mm 6 m/S 754 mmHg 88%
    06:00 +13°C° 0 mm 5 m/S 755 mmHg 87%
    07:00 +14°C° 0.1 mm 6 m/S 755 mmHg 83%
    08:00 +15°C° 0.1 mm 7 m/S 755 mmHg 79%
    09:00 +16°C° 0.1 mm 8 m/S 755 mmHg 75%
    10:00 +17°C° 0.2 mm 8 m/S 755 mmHg 75%
    11:00 +17°C° 0.2 mm 8 m/S 755 mmHg 75%
    12:00 +17°C° 0.2 mm 9 m/S 755 mmHg 74%
    13:00 +17°C° 0.4 mm 9 m/S 754 mmHg 78%
    14:00 +16°C° 0.4 mm 9 m/S 754 mmHg 81%
    15:00 +16°C° 0.4 mm 9 m/S 754 mmHg 84%
    16:00 +16°C° 1 mm 9 m/S 753 mmHg 87%
    17:00 +16°C° 1 mm 10 m/S 753 mmHg 89%
    18:00 +14°C° 1 mm 10 m/S 753 mmHg 91%
    19:00 +16°C° 0.5 mm 10 m/S 753 mmHg 92%
    20:00 +16°C° 0.5 mm 9 m/S 753 mmHg 93%
    21:00 +17°C° 0.5 mm 9 m/S 753 mmHg 93%
    22:00 +17°C° 0.2 mm 9 m/S 752 mmHg 93%
    23:00 +17°C° 0.2 mm 9 m/S 752 mmHg 94%

    Morgen, 24 September, Dienstag

    Zeit Temperatur Niederschläge Wind Luftdruck Luftfeuchtigkeit
    00:00 +17°C° 0.2 mm 8 m/S 752 mmHg 94%
    01:00 +17°C° 0.5 mm 8 m/S 751 mmHg 93%
    02:00 +17°C° 0.5 mm 8 m/S 751 mmHg 93%
    03:00 +17°C° 0.5 mm 8 m/S 750 mmHg 92%
    04:00 +17°C° 2.3 mm 9 m/S 749 mmHg 93%
    05:00 +17°C° 2.3 mm 9 m/S 748 mmHg 93%
    06:00 +16°C° 2.3 mm 10 m/S 748 mmHg 94%
    07:00 +16°C° 3.7 mm 9 m/S 747 mmHg 93%
    08:00 +16°C° 3.7 mm 8 m/S 747 mmHg 92%
    09:00 +17°C° 3.7 mm 8 m/S 747 mmHg 91%
    10:00 +17°C° 0.9 mm 8 m/S 747 mmHg 86%
    11:00 +18°C° 0.9 mm 9 m/S 747 mmHg 81%
    12:00 +19°C° 0.9 mm 9 m/S 747 mmHg 76%
    13:00 +18°C° 0.1 mm 10 m/S 747 mmHg 75%
    14:00 +18°C° 0.1 mm 10 m/S 748 mmHg 74%
    15:00 +18°C° 0.1 mm 10 m/S 748 mmHg 72%
    16:00 +17°C° 0 mm 10 m/S 748 mmHg 75%
    17:00 +16°C° 0 mm 9 m/S 748 mmHg 78%
    18:00 +15°C° 0 mm 9 m/S 748 mmHg 81%
    19:00 +15°C° 0.2 mm 9 m/S 748 mmHg 80%
    20:00 +15°C° 0.2 mm 9 m/S 748 mmHg 80%
    21:00 +15°C° 0.2 mm 9 m/S 749 mmHg 80%
    22:00 +14°C° 0.6 mm 10 m/S 748 mmHg 83%
    23:00 +14°C° 0.6 mm 10 m/S 748 mmHg 86%

    übermorgen, 25 September, Mittwoch

    Zeit Temperatur Niederschläge Wind Luftdruck Luftfeuchtigkeit
    00:00 +14°C° 0.6 mm 11 m/S 747 mmHg 89%
    01:00 +14°C° 1 mm 11 m/S 747 mmHg 89%
    02:00 +14°C° 1 mm 11 m/S 746 mmHg 88%
    03:00 +14°C° 1 mm 11 m/S 746 mmHg 87%
    04:00 +14°C° 0.7 mm 11 m/S 746 mmHg 88%
    05:00 +14°C° 0.7 mm 12 m/S 746 mmHg 89%
    06:00 +14°C° 0.7 mm 13 m/S 746 mmHg 90%
    07:00 +14°C° 0.6 mm 13 m/S 746 mmHg 89%
    08:00 +14°C° 0.6 mm 12 m/S 746 mmHg 88%
    09:00 +16°C° 0.6 mm 11 m/S 747 mmHg 87%
    10:00 +16°C° 0.2 mm 11 m/S 747 mmHg 85%
    11:00 +17°C° 0.2 mm 11 m/S 748 mmHg 83%
    12:00 +17°C° 0.2 mm 10 m/S 748 mmHg 81%
    13:00 +18°C° 0 mm 10 m/S 748 mmHg 78%
    14:00 +18°C° 0 mm 9 m/S 749 mmHg 76%
    15:00 +18°C° 0 mm 9 m/S 749 mmHg 74%
    16:00 +17°C° 0 mm 8 m/S 749 mmHg 78%
    17:00 +17°C° 0 mm 8 m/S 750 mmHg 81%
    18:00 +16°C° 0 mm 7 m/S 750 mmHg 85%
    19:00 +15°C° 0 mm 7 m/S 750 mmHg 87%
    20:00 +15°C° 0 mm 7 m/S 750 mmHg 90%
    21:00 +15°C° 0 mm 6 m/S 751 mmHg 93%
    22:00 +16°C° 0.1 mm 7 m/S 750 mmHg 93%
    23:00 +16°C° 0.1 mm 7 m/S 750 mmHg 93%

    26 September, Donnerstag

    Zeit Temperatur Niederschläge Wind Luftdruck Luftfeuchtigkeit
    00:00 +17°C° 0.1 mm 8 m/S 750 mmHg 93%
    01:00 +17°C° 0.1 mm 8 m/S 750 mmHg 92%
    02:00 +17°C° 0.1 mm 9 m/S 750 mmHg 91%
    03:00 +17°C° 0.1 mm 9 m/S 750 mmHg 90%
    04:00 +17°C° 0.1 mm 9 m/S 750 mmHg 90%
    05:00 +17°C° 0.1 mm 9 m/S 750 mmHg 89%
    06:00 +16°C° 0.1 mm 9 m/S 750 mmHg 88%
    07:00 +17°C° 0.2 mm 9 m/S 751 mmHg 89%
    08:00 +17°C° 0.2 mm 9 m/S 751 mmHg 90%
    09:00 +17°C° 0.2 mm 10 m/S 751 mmHg 91%
    10:00 +17°C° 0.9 mm 9 m/S 751 mmHg 86%
    11:00 +17°C° 0.9 mm 9 m/S 752 mmHg 81%
    12:00 +18°C° 0.9 mm 8 m/S 752 mmHg 76%
    13:00 +18°C° 0 mm 9 m/S 752 mmHg 74%
    14:00 +17°C° 0 mm 9 m/S 752 mmHg 73%
    15:00 +17°C° 0 mm 10 m/S 752 mmHg 71%
    16:00 +17°C° 0 mm 9 m/S 752 mmHg 73%
    17:00 +16°C° 0 mm 9 m/S 752 mmHg 74%
    18:00 +15°C° 0 mm 9 m/S 752 mmHg 75%
    19:00 +15°C° 0 mm 8 m/S 753 mmHg 76%
    20:00 +13°C° 0 mm 8 m/S 753 mmHg 78%
    21:00 +13°C° 0 mm 8 m/S 753 mmHg 79%
    22:00 +13°C° 0.1 mm 8 m/S 753 mmHg 79%
    23:00 +12°C° 0.1 mm 8 m/S 753 mmHg 80%

    27 September, Freitag

    Zeit Temperatur Niederschläge Wind Luftdruck Luftfeuchtigkeit
    00:00 +12°C° 0.1 mm 8 m/S 753 mmHg 81%
    01:00 +12°C° 0.3 mm 8 m/S 753 mmHg 82%
    02:00 +12°C° 0.3 mm 8 m/S 753 mmHg 83%
    03:00 +13°C° 0.3 mm 8 m/S 753 mmHg 83%
    04:00 +12°C° 0.1 mm 8 m/S 753 mmHg 83%
    05:00 +12°C° 0.1 mm 8 m/S 753 mmHg 82%
    06:00 +12°C° 0.1 mm 8 m/S 753 mmHg 82%
    07:00 +13°C° 0.2 mm 8 m/S 753 mmHg 79%
    08:00 +15°C° 0.2 mm 9 m/S 753 mmHg 76%
    09:00 +16°C° 0.2 mm 9 m/S 753 mmHg 74%
    10:00 +16°C° 0.2 mm 9 m/S 753 mmHg 74%
    11:00 +16°C° 0.2 mm 10 m/S 753 mmHg 74%
    12:00 +16°C° 0.2 mm 10 m/S 753 mmHg 74%
    13:00 +16°C° 0.2 mm 11 m/S 753 mmHg 74%
    14:00 +16°C° 0.2 mm 11 m/S 753 mmHg 74%
    15:00 +16°C° 0.2 mm 11 m/S 752 mmHg 74%
    16:00 +14°C° 0.2 mm 11 m/S 752 mmHg 75%
    17:00 +14°C° 0.2 mm 10 m/S 752 mmHg 76%
    18:00 +13°C° 0.2 mm 10 m/S 753 mmHg 77%
    19:00 +13°C° 0.2 mm 10 m/S 753 mmHg 78%
    20:00 +12°C° 0.2 mm 10 m/S 753 mmHg 78%
    21:00 +12°C° 0.2 mm 9 m/S 753 mmHg 79%
    22:00 +12°C° 0.1 mm 9 m/S 753 mmHg 79%
    23:00 +12°C° 0.1 mm 9 m/S 753 mmHg 79%

    28 September, Samstag

    Zeit Temperatur Niederschläge Wind Luftdruck Luftfeuchtigkeit
    00:00 +12°C° 0.1 mm 9 m/S 753 mmHg 78%
    01:00 +12°C° 0.1 mm 9 m/S 753 mmHg 79%
    02:00 +12°C° 0.1 mm 9 m/S 753 mmHg 80%
    03:00 +12°C° 0.1 mm 9 m/S 753 mmHg 81%
    04:00 +12°C° 0.1 mm 9 m/S 753 mmHg 81%
    05:00 +12°C° 0.1 mm 9 m/S 753 mmHg 81%
    06:00 +12°C° 0.1 mm 9 m/S 754 mmHg 82%
    07:00 +13°C° 0.1 mm 9 m/S 754 mmHg 79%
    08:00 +13°C° 0.1 mm 10 m/S 754 mmHg 77%
    09:00 +14°C° 0.1 mm 10 m/S 754 mmHg 75%
    10:00 +14°C° 0.2 mm 10 m/S 755 mmHg 75%
    11:00 +14°C° 0.2 mm 10 m/S 755 mmHg 76%
    12:00 +14°C° 0.2 mm 10 m/S 755 mmHg 77%
    13:00 +14°C° 0.1 mm 10 m/S 755 mmHg 76%
    14:00 +14°C° 0.1 mm 10 m/S 755 mmHg 74%
    15:00 +14°C° 0.1 mm 10 m/S 754 mmHg 73%
    16:00 +15°C° 0 mm 9 m/S 754 mmHg 74%
    17:00 +15°C° 0 mm 9 m/S 754 mmHg 76%
    18:00 +13°C° 0 mm 8 m/S 754 mmHg 77%
    19:00 +13°C° 0.1 mm 8 m/S 754 mmHg 78%
    20:00 +14°C° 0.1 mm 7 m/S 755 mmHg 78%
    21:00 +12°C° 0.1 mm 7 m/S 755 mmHg 79%
    22:00 +12°C° 0.1 mm 7 m/S 754 mmHg 81%
    23:00 +11°C° 0.1 mm 7 m/S 754 mmHg 82%
    Mehr zeigen